Location: Newark
(42.7133°N, 87.7910°W)
Time: 01:50:41
(UTC+00:00)

Vanguard 1 - Pass Details

Date: 26 September 2019
Orbit: 653 x 3830 km, 34.2° (Epoch: 18 October)

Event Time Altitude Azimuth Distance (km) Brightness Sun altitude
Rises 11:07:27 0° 277° (W) 7,974 - -7.3°
Exits shadow 11:11:01 - 275° (W) 7,300 13.8 -6.6°
Reaches altitude 10° 11:13:15 10° 274° (W) 6,871 13.7 -6.2°
Maximum altitude 11:33:53 52° 207° (SSW) 3,420 12.7 -2.4°
Drops below altitude 10° 11:46:44 10° 135° (SE) 4,459 14.2 -0.1°
Sets 11:49:38 0° 130° (SE) 5,112 14.7 0.4°
